Ravenna, OH

12:13 PM EDT on March 30, 2017 (GMT -0400)
Ravenna

Weather History for KPOV - March, 2014

Change the Weather History Date:

Sunday, March 23, 2014

  Actual Average (KCAK) Record (KCAK)
Temperature  
Mean Temperature 26 °F -  
Max Temperature 33 °F 49 °F 82 °F (2012)
Min Temperature 18 °F 29 °F 3 °F (1906)
Degree Days  
Heating Degree Days 40    
Moisture  
Dew Point 14 °F    
Average Humidity 67    
Maximum Humidity 83    
Minimum Humidity 50    
Precipitation  
Precipitation 0.00 in - - ()
Sea Level Pressure  
Sea Level Pressure 30.22 in    
Wind  
Wind Speed 8 mph (NW)    
Max Wind Speed 14 mph    
Max Gust Speed 21 mph    
Visibility 10 miles    
Events Snow    
Averages and records for this station are not official NWS values.
T = Trace of Precipitation, MM = Missing Value Source: NWS Daily Summary

Daily Weather History Graph

Daily Weather History Graph

Search for Another Location

Airport or City:

Trip Planner

Search our weather history database for the weather conditions in past years. The results will help you decide how hot, cold, wet, or windy it might be!

Date:

Astronomy

Mar. 23, 2014 Rise Set
Actual Time 7:23 AM EDT 7:40 PM EDT
Civil Twilight 6:55 AM EDT 8:07 PM EDT
Nautical Twilight 6:23 AM EDT 8:40 PM EDT
Astronomical Twilight 5:50 AM EDT 9:13 PM EDT
Moon 1:58 AM EDT (3/23) 12:00 PM EDT (3/23)
Length of Visible Light 13h 12m
Length of Day
12h 17m
Waning Gibbous, 55% of the Moon is Illuminated
Mar 23
Waning Gibbous
Mar 23
Last Quarter
Mar 30
New
Apr 7
First Quarter
Apr 15
Full

Hourly Weather History & Observations

Time (EDT) Temp. Windchill Dew Point Humidity Pressure Visibility Wind Dir Wind Speed Gust Speed Precip Events Conditions
12:14 AM 33.3 °F 27.9 °F 24.8 °F 71% 30.12 in 10.0 mi WSW 5.8 mph - N/A   Scattered Clouds
12:34 AM 33.3 °F 27.9 °F 24.8 °F 71% 30.11 in 10.0 mi West 5.8 mph - N/A   Mostly Cloudy
12:54 AM 33.8 °F 26.4 °F 25.0 °F 70% 30.12 in 10.0 mi WNW 9.2 mph - N/A   Overcast
1:14 AM 33.1 °F 26.9 °F 27.1 °F 79% 30.12 in 10.0 mi NW 6.9 mph - N/A   Overcast
1:34 AM 32.4 °F 24.6 °F 27.1 °F 81% 30.12 in 10.0 mi NW 9.2 mph - N/A   Overcast
1:55 AM 32.0 °F 22.5 °F 27.5 °F 83% 30.14 in 10.0 mi North 12.7 mph 19.6 mph N/A   Overcast
2:14 AM 30.9 °F 23.5 °F 26.1 °F 82% 30.14 in 10.0 mi NNW 8.1 mph - N/A   Overcast
2:34 AM 30.6 °F 23.1 °F 25.2 °F 80% 30.14 in 10.0 mi NNW 8.1 mph - N/A   Overcast
2:54 AM 30.2 °F 23.4 °F 24.3 °F 79% 30.14 in 10.0 mi NNW 6.9 mph - N/A   Overcast
3:14 AM 30.2 °F 24.3 °F 24.1 °F 78% 30.14 in 10.0 mi North 5.8 mph - N/A   Overcast
3:34 AM 29.1 °F 19.4 °F 23.5 °F 80% 30.14 in 10.0 mi NNW 11.5 mph 19.6 mph N/A   Overcast
3:54 AM 28.2 °F 18.9 °F 23.0 °F 81% 30.15 in 10.0 mi NNW 10.4 mph - N/A   Overcast
4:14 AM 27.3 °F 17.7 °F 22.1 °F 81% 30.15 in 10.0 mi North 10.4 mph 16.1 mph N/A   Overcast
4:34 AM 26.8 °F 17.7 °F 20.8 °F 78% 30.15 in 10.0 mi NNW 9.2 mph - N/A   Overcast
4:54 AM 25.9 °F 17.4 °F 19.4 °F 76% 30.15 in 10.0 mi North 8.1 mph - N/A   Overcast
5:14 AM 25.3 °F 16.0 °F 18.3 °F 75% 30.16 in 10.0 mi North 9.2 mph - N/A   Overcast
5:34 AM 25.0 °F 15.5 °F 18.0 °F 75% 30.17 in 10.0 mi North 9.2 mph - N/A   Overcast
5:55 AM 24.8 °F 16.9 °F 17.4 °F 74% 30.18 in 10.0 mi North 6.9 mph - N/A   Overcast
6:14 AM 24.6 °F 17.7 °F 17.6 °F 75% 30.18 in 10.0 mi North 5.8 mph - N/A   Overcast
6:34 AM 24.3 °F 16.3 °F 17.6 °F 76% 30.18 in 10.0 mi NNW 6.9 mph - N/A Snow Light Snow
6:54 AM 23.7 °F 15.6 °F 17.4 °F 77% 30.19 in 10.0 mi NNW 6.9 mph - N/A Snow Light Snow
7:14 AM 23.5 °F 17.6 °F 17.8 °F 79% 30.20 in 10.0 mi North 4.6 mph - N/A   Overcast
7:34 AM 23.0 °F 13.1 °F 17.2 °F 79% 30.21 in 10.0 mi NNW 9.2 mph - N/A Snow Light Snow
7:54 AM 22.5 °F 13.2 °F 16.3 °F 77% 30.22 in 7.0 mi North 8.1 mph - N/A Snow Light Snow
8:14 AM 22.1 °F 12.8 °F 16.3 °F 79% 30.22 in 5.0 mi North 8.1 mph - N/A Snow Light Snow
8:34 AM 21.4 °F 11.9 °F 15.6 °F 78% 30.22 in 5.0 mi North 8.1 mph - N/A Snow Light Snow
8:55 AM 20.8 °F 11.2 °F 14.9 °F 78% 30.23 in 4.0 mi North 8.1 mph - N/A Snow Light Snow
9:14 AM 20.3 °F 9.8 °F 14.9 °F 80% 30.22 in 3.0 mi North 9.2 mph - N/A Snow Light Snow
9:34 AM 20.8 °F 10.4 °F 14.9 °F 78% 30.22 in 4.0 mi North 9.2 mph - N/A Snow Light Snow
9:54 AM 21.0 °F 9.9 °F 14.7 °F 77% 30.23 in 10.0 mi North 10.4 mph - N/A Snow Light Snow
10:14 AM 21.0 °F 9.9 °F 13.3 °F 72% 30.24 in 10.0 mi NW 10.4 mph - N/A   Overcast
10:34 AM 21.4 °F 10.4 °F 13.1 °F 70% 30.25 in 10.0 mi NNW 10.4 mph 17.3 mph N/A   Overcast
10:54 AM 22.3 °F 10.8 °F 12.7 °F 67% 30.25 in 10.0 mi NNW 11.5 mph - N/A   Mostly Cloudy
11:14 AM 22.5 °F 11.7 °F 11.5 °F 63% 30.25 in 10.0 mi NW 10.4 mph - N/A   Mostly Cloudy
11:34 AM 23.0 °F 13.1 °F 11.5 °F 61% 30.25 in 10.0 mi North 9.2 mph 16.1 mph N/A   Mostly Cloudy
11:54 AM 22.8 °F 13.6 °F 9.7 °F 57% 30.25 in 10.0 mi WNW 8.1 mph - N/A   Mostly Cloudy
12:14 PM 23.5 °F 17.6 °F 10.0 °F 56% 30.25 in 10.0 mi NNW 4.6 mph 16.1 mph N/A   Mostly Cloudy
12:34 PM 24.3 °F 15.4 °F 9.7 °F 54% 30.25 in 10.0 mi NW 8.1 mph 16.1 mph N/A   Mostly Cloudy
12:54 PM 25.3 °F 15.3 °F 11.8 °F 57% 30.24 in 10.0 mi NNW 10.4 mph 17.3 mph N/A   Mostly Cloudy
1:14 PM 25.2 °F 15.1 °F 10.9 °F 55% 30.24 in 10.0 mi NW 10.4 mph 16.1 mph N/A   Mostly Cloudy
1:34 PM 25.7 °F 14.0 °F 11.1 °F 54% 30.24 in 10.0 mi NW 13.8 mph 19.6 mph N/A   Mostly Cloudy
1:54 PM 24.4 °F 14.2 °F 11.1 °F 57% 30.24 in 10.0 mi NW 10.4 mph 18.4 mph N/A   Mostly Cloudy
2:14 PM 24.1 °F 12.0 °F 11.3 °F 58% 30.24 in 10.0 mi NW 13.8 mph 17.3 mph N/A   Overcast
2:34 PM 25.3 °F 14.7 °F 10.9 °F 54% 30.23 in 10.0 mi NW 11.5 mph - N/A   Scattered Clouds
2:54 PM 25.7 °F 16.4 °F 10.2 °F 52% 30.22 in 10.0 mi NW 9.2 mph 17.3 mph N/A   Mostly Cloudy
3:14 PM 25.3 °F 14.1 °F 10.6 °F 54% 30.22 in 10.0 mi NNW 12.7 mph - N/A   Mostly Cloudy
3:34 PM 26.4 °F 16.0 °F 10.8 °F 52% 30.22 in 10.0 mi WNW 11.5 mph 20.7 mph N/A   Scattered Clouds
3:54 PM 25.3 °F 14.1 °F 11.1 °F 55% 30.22 in 10.0 mi NW 12.7 mph 20.7 mph N/A   Scattered Clouds
4:14 PM 25.9 °F 16.6 °F 9.7 °F 50% 30.22 in 10.0 mi NNW 9.2 mph 17.3 mph N/A   Mostly Cloudy
4:34 PM 24.1 °F 12.5 °F 9.0 °F 53% 30.22 in 10.0 mi WNW 12.7 mph 17.3 mph N/A   Overcast
4:54 PM 25.3 °F 16.7 °F 10.0 °F 52% 30.22 in 10.0 mi North 8.1 mph - N/A   Mostly Cloudy
5:14 PM 23.5 °F 12.4 °F 8.4 °F 53% 30.23 in 10.0 mi WNW 11.5 mph 19.6 mph N/A   Overcast
5:34 PM 22.6 °F 11.3 °F 10.6 °F 60% 30.24 in 10.0 mi WNW 11.5 mph 17.3 mph N/A   Overcast
5:55 PM 21.7 °F 10.8 °F 10.4 °F 62% 30.25 in 10.0 mi North 10.4 mph 17.3 mph N/A   Overcast
6:14 PM 22.3 °F 11.5 °F 9.3 °F 58% 30.25 in 10.0 mi WNW 10.4 mph - N/A   Mostly Cloudy
6:34 PM 21.6 °F 11.3 °F 7.3 °F 54% 30.25 in 10.0 mi NW 9.2 mph - N/A   Scattered Clouds
6:54 PM 19.9 °F 9.3 °F 8.8 °F 62% 30.26 in 10.0 mi WNW 9.2 mph - N/A   Mostly Cloudy
7:14 PM 20.1 °F 11.3 °F 8.6 °F 61% 30.26 in 10.0 mi WNW 6.9 mph - N/A Snow Light Snow
7:34 PM 20.1 °F 9.5 °F 8.4 °F 61% 30.27 in 10.0 mi WNW 9.2 mph - N/A   Overcast
7:54 PM 19.4 °F 10.4 °F 7.7 °F 60% 30.27 in 10.0 mi WNW 6.9 mph - N/A   Overcast
8:14 PM 18.9 °F 8.8 °F 7.7 °F 62% 30.27 in 10.0 mi WNW 8.1 mph - N/A   Scattered Clouds
8:34 PM 19.2 °F 12.5 °F 8.2 °F 62% 30.28 in 10.0 mi WNW 4.6 mph - N/A   Mostly Cloudy
8:54 PM 19.4 °F 12.8 °F 8.1 °F 61% 30.28 in 10.0 mi WNW 4.6 mph - N/A   Overcast
9:14 PM 19.0 °F 12.3 °F 8.2 °F 63% 30.28 in 10.0 mi WNW 4.6 mph - N/A   Overcast
9:34 PM 18.5 °F 13.3 °F 8.4 °F 65% 30.29 in 10.0 mi WNW 3.5 mph - N/A   Scattered Clouds
9:54 PM 18.5 °F - 9.0 °F 66% 30.29 in 10.0 mi Calm Calm - N/A   Mostly Cloudy
10:14 PM 18.5 °F - 9.5 °F 68% 30.29 in 10.0 mi Calm Calm - N/A   Overcast
10:34 PM 18.7 °F - 9.5 °F 67% 30.29 in 10.0 mi Calm Calm - N/A   Overcast
10:54 PM 18.0 °F - 9.5 °F 70% 30.29 in 10.0 mi Calm Calm - N/A   Mostly Cloudy
11:14 PM 18.1 °F - 9.1 °F 68% 30.30 in 10.0 mi Calm Calm - N/A   Mostly Cloudy
11:34 PM 18.0 °F - 10.9 °F 74% 30.30 in 10.0 mi Calm Calm - N/A   Overcast
11:54 PM 18.3 °F - 10.2 °F 71% 30.30 in 10.0 mi Calm Calm - N/A   Overcast